Weather History for Crestview, FL

Change the Weather History Date:

Saturday, November 5, 2011

  Actual Average Record
Temperature  
Mean Temperature 56 °F -  
Max Temperature 71 °F - - ()
Min Temperature 42 °F - - ()
Degree Days  
Heating Degree Days 8    
Growing Degree Days 6 (Base 50)    
Moisture  
Dew Point 38 °F    
Average Humidity 61    
Maximum Humidity 94    
Minimum Humidity 25    
Precipitation  
Precipitation 0.00 in - - ()
Sea Level Pressure  
Sea Level Pressure 30.16 in    
Wind  
Wind Speed 5 mph (NE)    
Max Wind Speed 16 mph    
Max Gust Speed 20 mph    
Visibility 10 miles    
Events      
T = Trace of Precipitation, MM = Missing Value Source: NWS Daily Summary

Daily Weather History Graph

Daily Weather History Graph

Search for Another Location

Airport:

Trip Planner

Search our weather history database for the weather conditions in past years. The results will help you decide how hot, cold, wet, or windy it might be!

Date:

Astronomy

Nov. 05, 2011 Rise Set
Actual Time 7:03 AM CDT 5:55 PM CDT
Civil Twilight 6:38 AM CDT 6:20 PM CDT
Nautical Twilight 6:10 AM CDT 6:48 PM CDT
Astronomical Twilight 5:41 AM CDT 7:17 PM CDT
Moon 2:57 PM CDT (11/5) 2:31 AM CDT (11/5)
Length of Visible Light 11h 41m
Length of Day
10h 51m
Waxing Gibbous, 78% of the Moon is Illuminated
Nov 5
Waxing Gibbous
Nov 10
Full
Nov 18
Last Quarter
Nov 25
New
Dec 2
First Quarter

Hourly Weather History & Observations

Time (CDT) Temp. Windchill Dew Point Humidity Pressure Visibility Wind Dir Wind Speed Gust Speed Precip Events Conditions
12:55 AM 45.5 °F - 41.9 °F 87% 30.10 in 10.0 mi Calm Calm - N/A   Clear
1:55 AM 45.7 °F 42.7 °F 42.6 °F 89% 30.11 in 10.0 mi North 5.8 mph - N/A   Clear
2:55 AM 45.0 °F 41.8 °F 41.9 °F 89% 30.10 in 10.0 mi North 5.8 mph - N/A   Clear
3:55 AM 42.1 °F 38.4 °F 40.1 °F 93% 30.11 in 10.0 mi North 5.8 mph - N/A   Clear
4:55 AM 44.2 °F 41.8 °F 42.1 °F 92% 30.12 in 10.0 mi NNE 4.6 mph - N/A   Clear
5:55 AM 43.3 °F - 41.2 °F 92% 30.14 in 10.0 mi Calm Calm - N/A   Clear
6:55 AM 43.5 °F 41.9 °F 41.9 °F 94% 30.16 in 10.0 mi North 3.5 mph - N/A   Clear
7:55 AM 43.9 °F - 42.1 °F 93% 30.18 in 10.0 mi Calm Calm - N/A   Clear
8:55 AM 50.7 °F - 45.0 °F 81% 30.19 in 10.0 mi NE 6.9 mph - N/A   Partly Cloudy
9:55 AM 59.0 °F - 42.6 °F 55% 30.19 in 10.0 mi NE 15.0 mph 19.6 mph N/A   Clear
10:55 AM 63.3 °F - 36.1 °F 36% 30.19 in 10.0 mi ENE 16.1 mph - N/A   Clear
11:55 AM 66.2 °F - 33.8 °F 30% 30.19 in 10.0 mi East 10.4 mph - N/A   Clear
12:55 PM 68.0 °F - 34.7 °F 29% 30.16 in 10.0 mi NE 12.7 mph - N/A   Clear
1:55 PM 70.5 °F - 33.8 °F 26% 30.14 in 10.0 mi NE 9.2 mph - N/A   Clear
2:55 PM 71.1 °F - 33.4 °F 25% 30.13 in 10.0 mi NE 10.4 mph - N/A   Clear
3:55 PM 70.9 °F - 33.3 °F 25% 30.12 in 10.0 mi Variable 6.9 mph - N/A   Clear
4:55 PM 69.6 °F - 33.6 °F 27% 30.12 in 10.0 mi NE 9.2 mph - N/A   Clear
5:55 PM 64.6 °F - 34.7 °F 33% 30.13 in 10.0 mi NE 3.5 mph - N/A   Clear
6:55 PM 53.2 °F - 36.7 °F 53% 30.16 in 10.0 mi ENE 3.5 mph - N/A   Clear
7:55 PM 48.7 °F - 37.8 °F 66% 30.17 in 10.0 mi ENE 4.6 mph - N/A   Clear
8:55 PM 54.3 °F - 35.1 °F 48% 30.19 in 10.0 mi ENE 4.6 mph - N/A   Clear
9:55 PM 52.0 °F - 35.1 °F 53% 30.22 in 10.0 mi ENE 4.6 mph - N/A   Clear
10:55 PM 45.9 °F 44.6 °F 34.9 °F 66% 30.23 in 10.0 mi NE 3.5 mph - N/A   Clear
11:55 PM 43.7 °F 41.1 °F 34.3 °F 70% 30.22 in 10.0 mi ENE 4.6 mph - N/A   Clear